Tracking 31027 objects as of 19-Jul-2025
HD Live streaming from Space Station
objects crossing your sky now

SL-24 R/B

Track SL-24 R/B now!
10-day predictions


NORAD ID: 33319
Int'l Code: 2008-040H
Perigee: 623.4 km
Apogee: 1,349.2 km
Inclination: 98.0 °
Period: 104.7 minutes
Semi major axis: 7357 km
RCS: 6.1238 m2 (large)
Launch date: August 29, 2008
Source: Commonwealth of Independent States (former USSR) (CIS)
Launch site: TYURATAM MISSILE AND SPACE COMPLEX (TTMTR)

Note: This is a ROCKET BODY
Your satellite tracking list
FENGYUN 1C DEB
Track 1 satellite(s)




NASA's NSSDC Master Catalog

Two Line Element Set (TLE):
1 33319U 08040H   25199.46685228  .00000010  00000-0  21199-4 0  9995
2 33319  97.9764  94.5872 0493274 205.5770 331.7915 13.75708006847424
Source of the keplerian elements: AFSPC